This demonstration page uses our WeatherBlox Daily Observations layout. Learn more.

Left ArrowRight Arrow

30.00354, -91.81873

Hourly Observations for August 12, 2022

Temp ( °F °C ) Dew Point ( °F °C ) Humidity (%) Winds ( mph kmh ) Pressure ( in mb ) Visibility ( mi km ) Precip ( " mm )
12:53 am 00:53 Mostly Clear 74 23.3 72 22.2 94 94 Calm 29.99 1016 7 11 0.00 0.00
1:53 am 01:53 Clear 74 23.3 72 22.2 94 94 N 3 6 29.97 1015 10 16 0.00 0.00
2:53 am 02:53 Mostly Clear 75 23.9 73 22.8 94 94 NNE 6 9 29.97 1015 10 16 0.00 0.00
3:53 am 03:53 Clear 75 23.9 73 22.8 94 94 ENE 6 9 29.96 1015 10 16 0.00 0.00
4:53 am 04:53 Clear 74 23.3 72 22.2 94 94 E 5 7 29.96 1014 10 16 0.00 0.00
5:46 am 05:46 Mostly Clear 75 23.9 73 22.8 94 94 NE 6 9 29.97 1015 10 16 0.00 0.00
5:53 am 05:53 Partly Cloudy 75 23.9 72 22.2 90 90 NE 8 13 29.97 1015 10 16 0.00 0.00
6:00 am 06:00 Mostly Cloudy 75 23.9 73 22.8 94 94 NE 7 11 29.97 1015 10 16 0.00 0.00
6:25 am 06:25 Cloudy with Mist and Fog 75 23.9 73 22.8 94 94 ENE 5 7 29.97 1015 2 3 0.00 0.00
6:53 am 06:53 Cloudy with Mist and Fog 74 23.3 72 22.2 94 94 ENE 6 9 29.98 1015 2 3 0.00 0.00
7:10 am 07:10 Mostly Cloudy 75 23.9 73 22.8 94 94 NE 5 7 29.98 1015 9 14 0.00 0.00
7:20 am 07:20 Partly Cloudy 75 23.9 73 22.8 94 94 NE 7 11 29.98 1015 10 16 0.00 0.00
7:53 am 07:53 Partly Cloudy 76 24.4 73 22.8 91 91 NE 7 11 29.98 1015 10 16 0.00 0.00
8:14 am 08:14 Mostly Cloudy 77 25 74 23.3 90 90 NE 6 9 29.98 1015 10 16 0.00 0.00
8:24 am 08:24 Partly Cloudy 78 25.6 74 23.3 87 87 ENE 6 9 29.99 1016 10 16 0.00 0.00
8:53 am 08:53 Mostly Sunny 79 26.1 74 23.3 85 85 NE 8 13 29.99 1016 10 16 0.00 0.00
9:53 am 09:53 Mostly Sunny 83 28.3 74 23.3 74 74 NE 10 17 29.99 1016 10 16 0.00 0.00
10:49 am 10:49 Mostly Cloudy 84 29 73 23 70 70 NE 7 11 30.00 1016 10 16 0.00 0.00
10:53 am 10:53 Mostly Cloudy 84 28.9 74 23.3 72 72 ENE 8 13 29.99 1016 10 16 0.00 0.00
11:05 am 11:05 Mostly Cloudy 85 29.4 74 23.3 70 70 NE 8 13 29.99 1016 10 16 0.00 0.00
11:53 am 11:53 Mostly Cloudy 87 30.6 73 22.8 63 63 E 9 15 29.98 1015 10 16 0.00 0.00
12:53 pm 12:53 Mostly Cloudy 88 31.1 73 22.8 61 61 E 8 13 29.97 1015 10 16 0.00 0.00
1:53 pm 13:53 Cloudy with Light Rain 82 27.8 75 23.9 79 79 SE 12 19 29.96 1015 8 13 0.01 0.25
2:53 pm 14:53 Cloudy with Light Rain 80 26.7 75 23.9 85 85 E 12 19 29.96 1014 8 13 0.06 1.52
3:19 pm 15:19 Cloudy with Nearby Thunderstorms 80 26.7 75 23.9 85 85 NE 8 13 29.96 1014 10 16 0.01 0.13
3:38 pm 15:38 Cloudy 81 27.2 76 24.4 85 85 N 5 7 29.95 1014 10 16 0.01 0.13
3:53 pm 15:53 Cloudy 82 27.8 75 23.9 79 79 ENE 3 6 29.94 1014 10 16 0.01 0.13
4:53 pm 16:53 Mostly Cloudy 82 27.8 73 22.8 74 74 SE 10 17 29.96 1015 10 16 0.00 0.00
5:53 pm 17:53 Mostly Sunny 82 27.8 72 22.2 72 72 E 6 9 29.95 1014 10 16 0.00 0.00
6:53 pm 18:53 Partly Cloudy 81 27.2 73 22.8 77 77 ESE 9 15 29.94 1014 10 16 0.00 0.00
7:53 pm 19:53 Partly Cloudy 79 26.1 73 22.8 82 82 ESE 5 7 29.94 1014 10 16 0.00 0.00
8:53 pm 20:53 Clear 78 25.6 73 22.8 85 85 E 3 6 29.96 1014 10 16 0.00 0.00
9:53 pm 21:53 Clear 77 25 73 22.8 88 88 E 5 7 29.96 1015 10 16 0.00 0.00
10:53 pm 22:53 Clear 76 24.4 73 22.8 91 91 E 3 6 29.96 1015 10 16 0.00 0.00
11:53 pm 23:53 Clear 77 25 74 23.3 90 90 ENE 7 11 29.97 1015 10 16 0.00 0.00

Powered by AerisWeather